This is the latest recevied weather packets stored in our database for station/object W6MAF. If no packets are shown the sender has not sent any weather packets the latest 10 day(s).
| Time | Temp. | Humidity | Pressure | Rain* | Wind** | Luminosity | Snow |
|---|---|---|---|---|---|---|---|
| 1777967545 | 6.67° C | 92% | - | 0 mm | 5.36 m/s, 204° | - | - |
| 1777967248 | 6.67° C | 91% | - | 0 mm | 4.92 m/s, 184° | - | - |
| 1777966950 | 6.67° C | 91% | - | 0 mm | 4.92 m/s, 194° | - | - |
| 1777966652 | 6.67° C | 91% | - | 0 mm | 4.02 m/s, 188° | - | - |
| 1777966351 | 6.67° C | 91% | - | 0 mm | 4.47 m/s, 195° | - | - |
| 1777966055 | 6.67° C | 90% | - | 0 mm | 4.47 m/s, 183° | - | - |
| 1777965756 | 6.67° C | 89% | - | 0 mm | 4.02 m/s, 190° | - | - |
| 1777965458 | 6.67° C | 88% | - | 0 mm | 4.47 m/s, 204° | - | - |
| 1777965162 | 6.67° C | 87% | - | 0 mm | 4.92 m/s, 198° | - | - |
| 1777964562 | 6.67° C | 86% | - | 0 mm | 4.47 m/s, 193° | - | - |
| 1777963967 | 6.67° C | 85% | - | 0 mm | 4.02 m/s, 200° | - | - |
| 1777963670 | 6.67° C | 85% | - | 0 mm | 4.47 m/s, 184° | - | - |
| 1777963372 | 6.67° C | 85% | - | 0 mm | 4.47 m/s, 201° | - | - |
| 1777963075 | 6.67° C | 85% | - | 0 mm | 4.02 m/s, 193° | - | - |
| 1777962773 | 6.67° C | 85% | - | 0 mm | 5.36 m/s, 200° | - | - |
| 1777962476 | 6.67° C | 85% | - | 0 mm | 4.02 m/s, 211° | - | - |
| 1777962178 | 6.67° C | 86% | - | 0 mm | 5.36 m/s, 193° | - | - |
| 1777961881 | 6.67° C | 86% | - | 0 mm | 4.47 m/s, 200° | - | - |
| 1777961582 | 6.67° C | 86% | - | 0 mm | 4.47 m/s, 194° | - | - |
| 1777961285 | 6.67° C | 85% | - | 0 mm | 6.26 m/s, 191° | - | - |
| 1777960984 | 6.67° C | 84% | - | 0 mm | 4.92 m/s, 173° | - | - |
| 1777960686 | 6.67° C | 84% | - | 0 mm | 4.47 m/s, 194° | - | - |
| 1777960389 | 6.67° C | 83% | - | 0 mm | 4.47 m/s, 203° | - | - |
| 1777960091 | 6.67° C | 83% | - | 0 mm | 3.58 m/s, 186° | - | - |
| 1777959496 | 6.67° C | 81% | - | 0 mm | 4.02 m/s, 197° | - | - |
* Rain latest hour (hover to see other rain measurements)
** Current wind speed in m/s (hover to see current wind gust speed)